Regional Weather Roundup
Issued by NWS

Home | Current Version | Previous Version | Graphics & Text | Print | Product List | Glossary On
Versions: 1 2 3 4 5 6 7 8 9 10 11 12 13 14 15 16 17 18 19 20 21 22 23 24 25 26 27 28 29 30 31 32 33 34 35 36 37 38 39 40 41 42 43 44 45 46 47 48 49 50
000
ASUS45 KPSR 121200
RWRAZ

PRELIMINARY ARIZONA REGIONAL HOURLY WEATHER ROUNDUP
NATIONAL WEATHER SERVICE PHOENIX AZ
500 AM MST SAT JUL 12 2014

NOTE: FAIR INDICATES FEW OR NO CLOUDS BELOW 12,000 FEET WITH NO
SIGNIFICANT WEATHER AND/OR OBSTRUCTIONS TO VISIBILITY.

AZZ001>003-036-121300-
NORTHWEST ARIZONA

CITY           SKY/WX    TMP DP  RH WIND       PRES   REMARKS
KINGMAN        CLEAR     69  49  48 SE8       30.06R
6HR MIN TEMP:  66; 6HR MAX TEMP:  81;

$$

AZZ004>008-015-016-018-121300-
NORTH CENTRAL ARIZONA

CITY           SKY/WX    TMP DP  RH WIND       PRES   REMARKS
GRAND CANYON   PTCLDY    51  47  86 CALM      30.30R
6HR MIN TEMP:  51; 6HR MAX TEMP:  58;

WILLIAMS       PTCLDY    52  45  76 S7        30.37R
PRESCOTT       MOCLDY    64  43  46 S5        30.18R
6HR MIN TEMP:  63; 6HR MAX TEMP:  72;

FLAGSTAFF      PTCLDY    58  47  66 SW3       30.32R
6HR MIN TEMP:  58; 6HR MAX TEMP:  64;

PAYSON         MOCLDY    68  57  68 CALM      30.21S
PAGE           CLEAR     77  42  28 SW5       30.10R
6HR MIN TEMP:  77; 6HR MAX TEMP:  85;

$$

AZZ009>014-017-121300-
NORTHEAST ARIZONA

CITY           SKY/WX    TMP DP  RH WIND       PRES   REMARKS
WINSLOW        NOT AVBL
SAINT JOHNS    MOCLDY    62  54  74 N6        30.23R
6HR MIN TEMP:  59; 6HR MAX TEMP:  67;

WINDOW ROCK    MOCLDY    62  56  80 CALM      30.33R
6HR MIN TEMP:  62; 6HR MAX TEMP:  67; 6HR PCP:  0.16;

$$

AZZ023-121300-
GREATER PHOENIX AREA

CITY           SKY/WX    TMP DP  RH WIND       PRES   REMARKS
PHOENIX        MOCLDY    89  59  36 E9        29.86S
6HR MIN TEMP:  89; 6HR MAX TEMP:  98;

LUKE AFB       NOT AVBL
6HR MIN TEMP:  84; 6HR MAX TEMP:  94;

DEER VALLEY    PTCLDY    86  58  38 VRB3      29.89R
6HR MIN TEMP:  86; 6HR MAX TEMP:  94;

SCOTTSDALE     MOCLDY    87  59  38 SE5       29.92R
6HR MIN TEMP:  86; 6HR MAX TEMP:  96;

$$

AZZ027-028-121300-
SOUTHWEST MARICOPA COUNTY AND PINAL COUNTY

CITY           SKY/WX    TMP DP  RH WIND       PRES   REMARKS
CASA GRANDE    MOCLDY    84  57  39 CALM      29.91S
6HR MIN TEMP:  84; 6HR MAX TEMP:  91;

$$

AZZ503-504-507>509-121300-
SOUTHEAST ARIZONA

CITY           SKY/WX    TMP DP  RH WIND       PRES   REMARKS
TUCSON         CLEAR     74  65  73 SE7       30.01S
6HR MIN TEMP:  74; 6HR MAX TEMP:  82; 6HR PCP:  0.01;

DAVIS-MONTHAN  PTCLDY    73  65  77 S6        30.00S
6HR MIN TEMP:  72; 6HR MAX TEMP:  78; 6HR PCP:  0.04;

NOGALES        CLEAR     64  62  93 SE5       30.07S
6HR MIN TEMP:  64; 6HR MAX TEMP:  67; 6HR PCP:  0.11;

SIERRA VISTA   CLEAR     66  59  78 S5        30.14S
6HR MIN TEMP:  65; 6HR MAX TEMP:  68; 6HR PCP: TRACE;

SAFFORD        PTCLDY    74  61  63 NW7       30.03R
6HR MIN TEMP:  74; 6HR MAX TEMP:  81;

$$

AZZ020-021-025-026-031-121300-
SOUTHWEST ARIZONA

CITY           SKY/WX    TMP DP  RH WIND       PRES   REMARKS
YUMA           NOT AVBL
$$

CAZ031-033-041-043-047-048-061-121300-
SOUTHERN CALIFORNIA

CITY           SKY/WX    TMP DP  RH WIND       PRES   REMARKS
DOWNTOWN L.A.  CLEAR     65  60  84 CALM      29.97R
6HR MIN TEMP:  65; 6HR MAX TEMP:  67;

L.A. AIRPORT   MOCLDY    67  61  81 CALM      29.98R
6HR MIN TEMP:  66; 6HR MAX TEMP:  68;

SAN DIEGO      CLOUDY    70  61  73 N5        29.99S
6HR MIN TEMP:  70; 6HR MAX TEMP:  71;

BURBANK        CLEAR     65  59  81 CALM      29.97S
6HR MIN TEMP:  65; 6HR MAX TEMP:  68;

ONTARIO        PTCLDY    65  58  78 CALM      29.99R
6HR MIN TEMP:  65; 6HR MAX TEMP:  70;

RIVERSIDE      CLEAR     65  59  81 CALM      29.99R
6HR MIN TEMP:  65; 6HR MAX TEMP:  71;

PALM SPRINGS   PTCLDY    84  51  31 NW7       29.86R
6HR MIN TEMP:  82; 6HR MAX TEMP:  91;

EL CENTRO NAS  PTCLDY    80  52  37 W10       29.81S
6HR MIN TEMP:  76; 6HR MAX TEMP:  86;

IMPERIAL       PTCLDY    76  54  46 W10       29.81S
6HR MIN TEMP:  74; 6HR MAX TEMP:  85;

BLYTHE         PTCLDY    79  49  34 N8        29.83R
6HR MIN TEMP:  77; 6HR MAX TEMP:  91;

$$

NVZ020-UTZ003-121300-
SOUTHERN NEVADA-UTAH

CITY           SKY/WX    TMP DP  RH WIND       PRES   REMARKS
LAS VEGAS      NOT AVBL
SALT LAKE CITY PTCLDY    67  57  70 CALM      30.14R
6HR MIN TEMP:  66; 6HR MAX TEMP:  73;

$$

NMZ009-TXZ055-121300-
NEW MEXICO-WEST TEXAS

CITY           SKY/WX    TMP DP  RH WIND       PRES   REMARKS
ALBUQUERQUE    MOCLDY    67  56  67 N5        30.24R
6HR MIN TEMP:  66; 6HR MAX TEMP:  72;

EL PASO        PTCLDY    74  59  59 NE5       30.10S
6HR MIN TEMP:  73; 6HR MAX TEMP:  81;

$$


........................KEY........................
SKY/WX - SKY CONDITION/WEATHER
TMP    - TEMPERATURE IN FAHRENHEIT
DP     - DEW POINT IN FAHRENHEIT
RH     - RELATIVE HUMIDITY IN PERCENT
WIND   - DIRECTION AND SPEED IN MILES PER HOUR (MPH)
VRB    - VARIABLE WIND DIRECTION
PRES   - MEAN SEA LEVEL PRESSURE IN INCHES OF MERCURY
         F - FALLING PRESSURE   R - RISING PRESSURE
         S - STEADY PRESSURE
VSB    - VISIBILITY IN MILES
HX     - HEAT INDEX IN FAHRENHEIT
WCI    - WIND CHILL INDEX IN FAHRENHEIT
TC     - TEMPERATURE IN CELSIUS WHICH IS ALSO KNOWN AS
         TEMPERATURE IN CENTIGRADE
AFB    - AIR FORCE BASE
         LUKE AFB IS LUKE AIR FORCE BASE
         DAVIS-MONTHAN IS DAVIS-MONTHAN AIR FORCE BASE
NAS    - NAVAL AIR STATION
         EL CENTRO NAS IS EL CENTRO NAVAL AIR STATION
N/A    - NOT AVAILABLE


USA.gov is the U.S. government's official web portal to all federal, state and local government web resources and services.